Regional Weather Roundup
Issued by NWS San Diego, CA

Home | Current Version | Previous Version | Text Only | Print | Product List | Glossary On
Versions: 1 2 3 4 5 6 7 8 9 10 11 12 13 14 15 16 17 18 19 20 21 22 23 24 25 26 27 28 29 30 31 32 33 34 35 36 37 38 39 40 41 42 43 44 45 46 47 48 49 50
000
ASUS46 KSGX 282011
RWRSGX

SAN DIEGO HOURLY WEATHER ROUNDUP
NATIONAL WEATHER SERVICE SAN DIEGO CA
100 PM PDT SUN AUG 28 2016

NOTE: "FAIR" INDICATES FEW OR NO CLOUDS BELOW 12,000 FEET WITH NO
SIGNIFICANT WEATHER AND/OR OBSTRUCTIONS TO VISIBILITY.

CAZ042-043-060-061-PZZ750-775-282100-

GREATER SAN DIEGO AREA

CITY           SKY/WX    TMP DP  RH WIND       PRES   REMARKS
LINDBERGH FLD  MOSUNNY   75  62  64 NW10      30.01F
POINT LOMA       N/A     75  62  63 W16         N/A
NATIONAL CITY    N/A     74  65  72 SW5       30.00F
CHULA VISTA      N/A     76  67  73 W9        29.93S
IMPERIAL BEACH SUNNY     77  63  61 W15       30.00F
BROWN FIELD    SUNNY     76  62  62 NW10G17   30.00S
MIRAMAR MCAS   MOSUNNY   78  61  55 NW8       30.00S
MONTGOMERY FLD MOSUNNY   78  61  55 W10       29.99F

$$

NORTH SAN DIEGO COUNTY

CITY           SKY/WX    TMP DP  RH WIND       PRES   REMARKS
CAMP PENDLETON SUNNY     75  64  68 SW9       29.97F HAZE
OCEANSIDE AP   SUNNY     75  61  61 SW12      29.98F
OCEANSIDE HBR    N/A     70  66  87 W12       30.02F
VISTA            N/A     76  65  66 W5        29.96F
CARLSBAD       SUNNY     73  63  70 W10       29.99S
DEL MAR          N/A     75  66  73 CALM      30.02F
LA JOLLA SCRIP   N/A     69  65  86 SW3       29.99F
FALLBROOK        N/A     83  66  55 SW8       29.95F
ESCONDIDO        N/A     85  65  50 W5        29.99F
SAN MARCOS       N/A     80  65  60 NW14      30.02F
POWAY            N/A     84  65  53 SW7       29.98F

$$

EAST SAN DIEGO COUNTY

CITY           SKY/WX    TMP DP  RH WIND       PRES   REMARKS
RAMONA         SUNNY     88  58  36 NW9       30.00F
SANTEE LAKES     N/A     84  65  52 W3        29.96F
LA MESA          N/A     81  64  57 NW5       29.91F
JAMUL            N/A     86  65  48 CALM      29.98F
DESCANSO N       N/A     87  55  33 W3        29.91F
MT. LAGUNA OBS   N/A     73  40  30 NE5       29.83S
CAMPO            N/A     92  45  19 NE12G21   30.02F

$$

ORANGE COUNTY AND THE LOS ANGELES BASIN

CITY           SKY/WX    TMP DP  RH WIND       PRES   REMARKS
JOHN WAYNE AP  MOSUNNY   79  62  56 SW8       29.98F
LAGUNA BEACH     N/A     74  66  75 SW2       29.94F
LAKE FOREST FR   N/A     84  58  40 W3        29.88F
HUNTINGTON BCH   N/A     75  67  76 W9        30.01F
LOS ALAMITOS   SUNNY     80  63  56 SW8       29.98F
FULLERTON      SUNNY     85  60  42 S7        29.97F
LONG BEACH     SUNNY     80  62  54 VRB5      29.98F
L.A. AP        MOSUNNY   73  61  65 W13       30.00F
L.A. DOWNTOWN  SUNNY     79  61  53 W6        29.98F

$$

THE INLAND EMPIRE

CITY           SKY/WX    TMP DP  RH WIND       PRES   REMARKS
CORONA         SUNNY     87  61  41 W12G18    29.97F
CHINO          MOSUNNY   92  58  31 W9        29.98F
ONTARIO        MOSUNNY   89  53  29 VRB7      29.98F
SAN BERNARDINO MOSUNNY   91  52  25 W3        29.99F HAZE
RIVERSIDE AP   SUNNY     88  55  32 W6        29.98F
MORENO VALLEY    N/A     94  58  29 W5        28.12F
MARCH ARB      SUNNY     89  55  30 NW13      30.00F
HORSETHIEF CYN   N/A     87  51  29 NE7       30.00F
PERRIS           N/A     90  57  32 NW5       30.01F
HEMET EAST       N/A     89  49  24 SW5       29.87S
FRENCH VALLEY  FAIR      91  57  31 S8        29.99F
TEMECULA         N/A     91  58  32 W2        30.03F

$$

SAN BERNARDINO AND RIVERSIDE COUNTY MOUNTAINS

CITY           SKY/WX    TMP DP  RH WIND       PRES   REMARKS
BIG BEAR AP    SUNNY     75  32  20 E13       30.35S
ANGELUS OAKS     N/A     82  48  30 CALM      29.90F
PINE COVE        N/A     76  46  33 S1        29.98F

$$

SOUTHERN DESERT INCLUDING THE COACHELLA VALLEY

CITY           SKY/WX    TMP DP  RH WIND       PRES   REMARKS
PALM SPRINGS   SUNNY    101  51  18 E10       29.92F HX  98
THOUSAND PALMS   N/A    101  54  20 E8        29.88F HX  99
PALM DESERT      N/A    103  59  23 CALM      29.52R HX 103
THERMAL        SUNNY    102  59  24 SE10      29.87F HX 102
BLYTHE         SUNNY     99  51  19 CALM      29.92F HX  96
IMPERIAL AP    SUNNY    100  54  21 VRB3      29.89F HX  98
EL CENTRO NAS  SUNNY    100  47  16 SE6       29.91F HX  96
YUMA AZ        SUNNY     97  39  13 CALM      29.91
MEXICALI       SUNNY     97  41  14 CALM      29.92F

$$

UPPER DESERT

CITY           SKY/WX    TMP DP  RH WIND       PRES   REMARKS
VICTORVILLE AP MOSUNNY   93  32  11 CALM      30.08F
PALMDALE       SUNNY     94  32  11 CALM      30.06F
LANCASTER      SUNNY     95  33  11 SW6       30.04F
EDWARDS AFB    MOSUNNY   90  34  13 VRB2      30.03F
DAGGETT        SUNNY     98  36  11 NW10G18   30.00F
29 PALMS N     MOSUNNY   94  39  14 VRB3      30.09F
NEEDLES        SUNNY     98  52  21 NE3       29.96F HX  95

$$

REGIONAL REPORTS

CITY           SKY/WX    TMP DP  RH WIND       PRES   REMARKS
SANTA BARBARA  SUNNY     74  60  61 SW9       30.01F
SANDBERG       SUNNY     90  26  10 N9        30.22F
LAS VEGAS NV   MOSUNNY   90  46  21 NE5       30.03F
PHOENIX AZ     MOSUNNY   95  42  16 CALM      29.94F
TIJUANA        SUNNY     75  59  57 W14       30.02S
ENSENADA NW      N/A     72  32  22 NW16      29.96F

$$

OFFSHORE ISLANDS

CITY           SKY/WX    TMP DP  RH WIND       PRES   REMARKS
CATALINA ARPT  SUNNY     77  60  55 W3        30.05F
SAN NICOLAS IS SUNNY    N/A N/A N/A NW18      30.04F

$$

MARINE AND OFFSHORE BUOY REPORTS

STATION/POSITION SKY/WX   TEMP    WIND        PRES    SWELL
                          AIR SEA DIR/SP/G            HT/PER/DIR
                          (F)     (DEG/KT/KT) (MB)    (FT/S/D)
TANNER BANKS               63 65  310/ 16/ 17 1017.5F   3/210/12
S CLEMENTE BASIN           66 71  280/ 12/ 16 1016.2F   3/200/11
SAN NICOLAS IS.               64                N/A     2/190/13
SO. S. ROSA ISLA           62 64  310/ 19/ 23 1017.3F   3/290/10
W. S. BARBARA CH           61 59  310/ 19/ 23 1017.0F   3/310/ 9
M. S. BARBARA CH                  260/ 10/ 12 1017.1F
S. MONICA BASIN            66 68  320/  8/  8 1016.5F
S PEDRO CHANNEL               72                N/A     2/170/11
OCEANSIDE OFFSHR              69                N/A     2/200/13
TORREY PINES OTR              70                N/A     2/190/11
POINT LOMA SOUTH              71                N/A     2/170/11

$$




USA.gov is the U.S. government's official web portal to all federal, state and local government web resources and services.